Content
SEND FEEDBACK

Daily
Averages
Monthly
Summary
United States of America

ST. LOUIS - SAINT LOUIS UNIVERSITY, MISSOURI


Home > North America > United States > Missouri
Elevation: 580 feet     Latitude: 38 38N     Longitude: 090 14W

WEATHER
 
SELECT A DAY
Number of Records: 190,737;   Date Range: 1/1/95 - 12/19/14
 
SHARE

PRINT THIS DATA

[ ← Previous Day ]
WEATHER ALMANAC - JUNE 12, 2013
[ Next Day → ]
[ °C ]   °F
Weather ElementAverageHighLow
Temperature85.7 °F95 °F (3:53 pm)72 °F (5:53 am)
Dewpoint69.9 °F72 °F (10:53 am)68 °F (3:53 am)
Humidity60.8 %87 % (5:53 am)44 % (4:53 pm)
Barometer29.83 in29.95 in (7:53 am)29.73 in (7:53 pm)
Wind Speed7.8 mph16.1 mph (3:53 pm)
Wind Gust25.3 mph (5:53 pm)
Weather ElementAverage
Visibility10 mi
Wind DirectionSSW (201.7 °)

Weather ElementTotal
Precipitation---
Cooling Degree Days18.5 (Base 65)
Growing Degree Days33.5 (Base 50)
Averaged from 23 records on June 12, 2013
WEATHER CONDITIONS BREAKOUT
WIND DIRECTION BREAKOUT
WEATHER BY HOUR - JUNE 12, 2013
[ °C ]   °F
Local TimeTemperatureDewpointHumidityBarometerVisibilityWind DirectionWind SpeedGust SpeedPrecipitationEventsConditions
1:53 AM80.1 °F70.0 °F71 %29.87 in10.0 miSW (220°)3.5 mphClear
2:53 AM77.0 °F69.1 °F76 %29.87 in10.0 miCalmClear
3:53 AM75.9 °F68.0 °F76 %29.88 in10.0 miSouth (180°)4.6 mphClear
4:53 AM73.0 °F68.0 °F84 %29.88 in10.0 miSouth (180°)3.5 mphClear
5:53 AM72.0 °F68.0 °F87 %29.90 in10.0 miSouth (180°)4.6 mphClear
6:53 AM75.9 °F69.1 °F79 %29.93 in10.0 miSE (140°)3.5 mphClear
7:53 AM78.1 °F70.0 °F76 %29.95 in10.0 miSSE (160°)3.5 mphClear
8:53 AM82.0 °F70.0 °F67 %29.94 in10.0 miSSW (210°)4.6 mphClear
9:53 AM84.9 °F70.0 °F61 %29.91 in10.0 miSW (230°)6.9 mphClear
10:53 AM88.0 °F72.0 °F59 %29.90 in10.0 miSSW (200°)10.4 mphClear
11:53 AM91.0 °F71.1 °F52 %29.87 in10.0 miSSW (210°)9.2 mph20.7 mphClear
12:53 PM93.0 °F71.1 °F49 %29.83 in10.0 miSSW (200°)9.2 mphClear
1:53 PM93.9 °F72.0 °F49 %29.80 in10.0 miSouth (190°)13.8 mph19.6 mphClear
2:53 PM93.9 °F70.0 °F46 %29.78 in10.0 miSW (220°)12.7 mph19.6 mphClear
3:53 PM95.0 °F71.1 °F46 %29.77 in10.0 miSW (230°)16.1 mph24.2 mphClear
4:53 PM95.0 °F70.0 °F44 %29.75 in10.0 miWSW (240°)11.5 mph24.2 mphScattered Clouds
5:53 PM93.9 °F69.1 °F44 %29.75 in10.0 miWSW (240°)11.5 mph25.3 mphPartly Cloudy
6:53 PM91.9 °F70.0 °F48 %29.74 in10.0 miSW (230°)9.2 mph19.6 mphClear
7:53 PM90.0 °F71.1 °F54 %29.73 in10.0 miSW (220°)9.2 mphMostly Cloudy
8:53 PM88.0 °F72.0 °F59 %29.73 in10.0 miSW (230°)8.1 mphScattered Clouds
9:53 PM86.0 °F71.1 °F61 %29.74 in10.0 miSW (230°)4.6 mphClear
10:53 PM86.0 °F68.0 °F55 %29.74 in10.0 miWSW (250°)8.1 mph21.9 mphClear
11:53 PM86.0 °F68.0 °F55 %29.74 in10.0 miWSW (250°)11.5 mph19.6 mphClear
Hourly data recorded from KCPS, located miles away from St. Louis - Saint Louis University, Missouri







STORIES FROM OUR PARTNERS